Regional Weather Roundup
Issued by NWS

Home | Current Version | Previous Version | Graphics & Text | Print | Product List | Glossary Off
Versions: 1 2 3 4 5 6 7 8 9 10 11 12 13 14 15 16 17 18 19 20 21 22 23 24 25 26 27 28 29 30 31 32 33 34 35 36 37 38 39 40 41 42 43 44 45 46 47 48 49 50

000
ASUS43 KMKX 010720
RWRWI

WISCONSIN REGIONAL WEATHER ROUNDUP
NATIONAL WEATHER SERVICE MILWAUKEE/SULLIVAN WI
100 AM CST SUN MAR 01 2015

NOTE: "FAIR" INDICATES FEW OR NO CLOUDS BELOW 12,000 FEET WITH NO
SIGNIFICANT WEATHER AND/OR OBSTRUCTIONS TO VISIBILITY.

WIZ001-002-006>008-014>016-023>028-010800-
NORTHWEST WISCONSIN

CITY           SKY/WX    TMP DP  RH WIND       PRES   REMARKS
SUPERIOR ARPT  MOCLDY    12   4  69 CALM      30.25S
ASHLAND        CLOUDY    13   2  61 SW10      30.26F WCI   0
HAYWARD        CLOUDY    12   2  64 S9        30.25F WCI   0
SIREN          CLOUDY    13   6  72 S9        30.26F WCI   1
CUMBERLAND     FLURRIES  12   5  73 S8        30.26F WCI   1
RICE LAKE      FLURRIES  12   4  72 S9        30.30F WCI  -1
CHETEK         FLURRIES  12   3  69 S7        30.30F WCI   1
LADYSMITH      CLOUDY    11   1  63 S8        30.30S WCI   0
EAU CLAIRE     CLOUDY    13   2  61 S9        30.32F WCI   1
MENOMONIE      CLOUDY    14   5  69 S7        30.32F WCI   4
NEW RICHMOND   CLOUDY    12   6  77 S9        30.29S WCI  -1
OSCEOLA        MOCLDY    11   5  77 S6        30.31F WCI   1
$$

WIZ003>005-009-010-017-018-010800-
NORTH CENTRAL WISCONSIN

CITY           SKY/WX    TMP DP  RH WIND       PRES   REMARKS
MANITOWISH WTR CLOUDY     9  -2  59 SW10      30.23S WCI  -5
ARBOR VITAE    CLOUDY    11  -1  59 SW5       30.24F WCI   3
WOODRUFF       CLOUDY    11  -1  59 SW5       30.24F WCI   3
RHINELANDER    CLEAR      9  -3  58 SW8       30.26F WCI  -3
EAGLE RIVER    PTCLDY    10  -4  53 SW8       30.23F WCI  -2
LAND O LAKES   CLOUDY    11  -3  54 SW9       30.23S WCI  -2
PHILLIPS       CLOUDY    10  -1  61 SW10      30.25F WCI  -3
TOMAHAWK       CLEAR      8  -2  63 CALM      30.28F
MEDFORD        CLOUDY    10  -1  62 S8        30.29S WCI  -3
MERRILL        CLEAR     10  -1  59 SW7       30.31S WCI   0
$$

WIZ029-030-035-036-043>047-010800-
CENTRAL WISCONSIN

CITY           SKY/WX    TMP DP  RH WIND       PRES   REMARKS
WAUSAU         CLOUDY    11  -1  58 SW8       30.32F WCI  -1
MOSINEE        MOCLDY    12   1  62 S8        30.34S WCI   1
MARSHFIELD     MOCLDY     9  -1  64 SW7       30.33F WCI  -2
STEVENS POINT  PTCLDY    10  -1  61 SW7       30.36F WCI  -1
WAUPACA        CLOUDY    16   2  55 SW9       30.39F WCI   4
WAUTOMA        CLOUDY    13   2  61 SW6       30.40F WCI   4
WISC RAPIDS    CLOUDY    11  -2  56 SW9       30.38F WCI  -2
CAMP DOUGLAS   CLEAR     10   2  69 S6        30.38F WCI   0
$$

WIZ011>013-019>022-031-037>040-048>050-010800-
NORTHEAST WISCONSIN

CITY           SKY/WX    TMP DP  RH WIND       PRES   REMARKS
ANTIGO         PTCLDY     8   0  68 SW7       30.29S WCI  -3
SHAWANO        CLOUDY    16   3  56 SW3       30.38S
OCONTO         CLOUDY    15   3  58 SW6       30.39S WCI   7
STURGEON BAY   CLOUDY    16   1  53 SW10      30.40S WCI   3
GREEN BAY      CLOUDY    15   4  61 SW13      30.40F WCI   1
MANITOWOC      CLOUDY    16   7  67 SW9       30.42F WCI   4
APPLETON       CLOUDY    14   5  67 SW9       30.39S WCI   2
CLINTONVILLE   CLOUDY    14   3  62 SW8       30.38S WCI   3
OSHKOSH        CLOUDY    14   7  73 SW10      30.40F WCI   1
$$

WIZ032>034-041-042-053>061-010800-
SOUTHWEST WISCONSIN

CITY           SKY/WX    TMP DP  RH WIND       PRES   REMARKS
LA CROSSE      CLOUDY    14   5  67 S6        30.40F WCI   5
SPARTA         CLEAR     10   1  69 CALM      30.40F
VIROQUA        CLOUDY     8   3  81 S5        30.35F WCI  -1
BOSCOBEL       CLOUDY     3  -2  79 CALM      30.43F
PRAIRIE DU CHI MIX PCPN   7   1  75 CALM      30.43S
PLATTEVILLE    CLOUDY     9   7  90 E5        30.39S WCI   1
$$

WIZ056-057-062-063-064-067-068-010800-
SOUTH CENTRAL WISCONSIN

CITY           SKY/WX    TMP DP  RH WIND       PRES   REMARKS
REEDSBURG      LGT SNOW  10   5  77 SW7       30.40S WCI   0
BARABOO/DELLS  LGT SNOW  10   5  79 SW5       30.39S WCI   2
LONE ROCK      LGT SNOW  10   3  73 CALM      30.42F
MINERAL POINT  LGT SNOW  14  10  85 S3        30.37S
MADISON        CLOUDY    14  10  84 S7        30.41S WCI   4
MIDDLETON      CLOUDY    16  10  80 SW6       30.40F WCI   7
WATERTOWN      LGT SNOW  12  10  92 CALM      30.41F
MONROE         FLURRIES  12  10  92 S6        30.38F WCI   3
JANESVILLE     MOCLDY    14  12  92 CALM      30.41F
$$

WIZ051-052-058>065-066-070>072-010800-
SOUTHEAST WISCONSIN

CITY           SKY/WX    TMP DP  RH WIND       PRES   REMARKS
MILWAUKEE      FLURRIES  17  10  74 SW6       30.43F WCI   9
WAUKESHA       LGT SNOW  12   9  85 S3        30.42F
MILWAUKEE/TIMM PTCLDY    18  10  73 S3        30.44S
RACINE         MOCLDY    17  10  74 SW5       30.45F WCI  10
BURLINGTON     FLURRIES  10   7  88 CALM      30.42S
KENOSHA        CLOUDY    15  12  88 CALM      30.43F
FOND DU LAC    PTCLDY    11   6  81 S5        30.40F WCI   3
SHEBOYGAN      CLOUDY    14   7  73 SW9       30.42F WCI   2
WEST BEND      CLOUDY    14   9  79 CALM      30.41F
JUNEAU         FLURRIES  11   8  87 S3        30.42S
$$

LSZ147-162-010800-
LAKE SUPERIOR

STATION/POSITION TIME  TEMP    WIND        PRES    WAVE
                       AIR SEA DIR/SP/G            HT/PER
                 (UTC) (F)     (DEG/KT/KT) (MB)    (FT/S)
DEVILS ISLAND    0700   15     220/ 13/ 15 1025.6F
PORT WING        0600   15     200/  8/ 15 1024.7F
SAXON HARBOR     0600   15     200/ 11/ 17 1025.1F
$$

LMZ867-665-643>646-010800-
LAKE MICHIGAN

STATION/POSITION TIME  TEMP    WIND        PRES    WAVE
                       AIR SEA DIR/SP/G            HT/PER
                 (UTC) (F)     (DEG/KT/KT) (MB)    (FT/S)
NORTHPORT PIER   0703   16     170/  4/  9 1028.8F
SISTER BAY       0543   16     210/ 11/ 13   N/A
KEWAUNEE LAKESHO 0618   17     220/  9/ 12 1029.0F
SHEBOYGAN LAKESH 0700   17     220/  8/ 10 1031.9F
PORT WASHINGTON  0640   18     250/  5/  8 1031.2F
MILWAUKEE LAKESH 0700   18     220/  9/ 11   N/A
KENOSHA   LAKESH 0700   18     240/  4/  6 1030.5F
$$

TC  - TEMPERATURE IN CELSIUS
VSB - VISIBILITY IN STATUTE MILES
WCI - WIND CHILL INDEX
HX  - HEAT INDEX




USA.gov is the U.S. government's official web portal to all federal, state and local government web resources and services.